Lid_Strength_Index
10 13 16 13 13 12 13 14 15 14 12 13 13 13 11 10 11 11 11 12 12 12 11 11 10 11 11 12 11 10 10 9 9 10 10 10 10 9 7 6 6 5 6 6
13 15 12 11 12 13 14 15 15 13 13 14 14 14 11 10 11 12 12 12 12 12 12 11 12 12 12 12 10 9 9 9 9 10 10 9 9 8 6 6 7 6 5 5
14 12 11 11 12 13 14 15 16 14 13 13 15 16 14 12 11 12 12 12 12 12 12 12 13 13 13 12 10 9 10 9 9 9 9 9 8 7 6 6 7 6 5 5
13 11 12 13 13 13 15 13 13 13 15 18 15 20 18 14 13 11 12 12 13 12 12 12 13 14 14 12 10 10 9 9 9 9 10 10 9 7 6 6 7 6 5 5
14 13 14 14 13 12 14 13 13 14 16 17 18 21 17 15 13 13 12 12 13 12 13 13 13 13 13 11 11 10 10 10 10 9 10 8 9 7 7 7 7 7 5 4
13 12 13 13 13 13 12 14 15 16 17 22 20 19 18 17 14 13 14 13 12 12 13 13 13 13 12 12 11 11 10 10 10 10 10 8 9 8 8 7 7 6 5 4
14 14 13 12 13 13 14 16 22 23 24 21 18 19 17 14 13 13 13 12 12 12 13 13 14 13 13 12 11 11 10 11 10 10 10 10 10 8 7 7 6 4 4 3
18 19 13 12 13 14 14 15 19 23 22 20 18 20 16 13 13 13 12 13 12 13 13 13 14 13 13 12 11 11 11 11 10 10 10 10 10 9 7 7 6 4 4 3
18 18 14 13 12 12 14 16 14 17 22 21 19 17 14 14 14 14 13 13 13 13 13 13 14 14 13 13 12 11 11 11 11 11 10 10 10 9 8 7 7 6 5 3
14 18 16 15 14 14 15 13 17 19 23 23 20 19 16 14 14 14 14 13 13 13 14 14 14 14 14 13 12 12 11 11 11 11 11 10 10 10 9 6 6 6 5 4
13 15 17 16 17 17 16 17 16 16 18 20 21 19 15 15 15 14 14 13 13 13 14 14 14 14 14 13 13 12 11 11 11 11 11 10 10 10 9 7 5 5 5 4
12 14 20 18 15 15 15 16 16 19 20 19 19 19 14 15 15 14 14 13 13 13 13 14 14 14 14 14 13 12 12 11 11 11 11 11 9 9 10 8 6 5 6 5
12 16 18 18 15 16 17 16 16 16 18 19 21 19 15 15 14 14 15 14 13 14 14 14 14 14 15 14 13 12 12 11 11 11 11 12 11 9 9 8 7 7 6 6
10 14 16 19 18 17 18 17 16 16 19 18 18 17 17 17 16 16 16 15 14 13 13 14 14 14 14 14 14 13 12 11 11 11 12 12 12 10 9 9 9 7 7 7
12 16 16 15 15 15 16 17 17 17 16 18 17 16 18 17 17 17 16 15 16 16 16 15 14 14 14 14 14 13 12 11 11 11 12 12 12 12 10 10 10 10 8 7
12 15 15 18 14 15 16 15 15 16 16 16 16 17 17 16 16 18 17 17 18 18 17 17 16 14 14 13 14 14 13 12 11 11 11 12 13 13 12 10 10 11 9 8
13 15 16 18 16 16 18 16 15 15 18 18 18 19 18 18 17 19 18 19 19 18 18 18 17 16 15 15 14 14 14 13 12 11 12 12 13 13 13 11 11 11 10 9
14 13 14 17 18 21 18 17 15 18 19 19 19 19 19 18 17 18 17 18 18 18 18 18 18 17 16 17 16 15 14 13 12 12 12 13 13 13 14 13 11 11 11 11
11 12 15 19 20 16 16 18 18 18 21 18 19 19 18 18 17 17 17 17 18 18 18 18 18 17 17 18 17 15 15 14 13 13 13 13 13 14 15 14 13 11 12 12
10 11 14 15 19 20 19 17 15 16 22 18 18 19 19 18 19 19 17 17 17 17 17 18 18 18 18 19 18 17 17 17 17 16 14 14 15 13 14 14 14 14 13 13
17 14 15 16 17 18 16 15 14 19 22 17 17 18 18 19 18 16 16 17 17 17 18 18 18 19 19 19 19 19 19 19 18 18 17 15 15 15 14 14 15 15 14 15
19 21 20 20 19 20 14 14 18 16 15 16 16 16 17 16 16 16 17 17 18 18 18 18 19 19 19 19 19 20 20 19 19 18 17 16 16 16 15 15 16 16 15 15
20 19 20 16 17 14 14 13 13 13 14 15 15 16 16 17 17 18 17 18 18 19 19 19 20 20 20 20 20 20 20 20 20 20 19 18 17 16 17 16 16 16 16 14
19 18 20 19 17 15 13 12 12 12 13 14 16 16 17 18 18 18 18 18 19 20 20 20 21 21 21 20 21 20 20 20 21 21 20 18 17 16 17 17 16 15 16 15
17 16 18 18 14 13 14 13 13 13 14 15 17 18 18 19 19 19 19 19 20 21 21 21 22 22 22 22 22 21 21 21 22 21 20 19 18 17 16 16 16 16 14 14
14 16 19 19 14 14 13 13 14 15 16 17 18 19 19 18 19 20 20 20 21 22 22 22 23 24 23 23 22 22 22 22 22 22 21 20 19 18 17 16 15 14 14 14